Time,TemperatureF,DewpointF,PressureIn,WindDirection,WindDirectionDegrees,WindSpeedMPH,WindSpeedGustMPH,Humidity,HourlyPrecipIn,Conditions,Clouds,dailyrainin,SoftwareType,DateUTC
2013-06-18 00:12:00,61.0,61.0,29.98,ENE,61,0.0,19.0,99,0.00,,,0.01,,2013-06-18 04:12:00,
2013-06-18 00:23:00,61.0,61.0,29.98,ENE,61,0.0,19.0,99,0.00,,,0.01,,2013-06-18 04:23:00,
2013-06-18 00:34:00,61.0,61.0,29.98,ENE,61,0.0,19.0,99,0.00,,,0.01,,2013-06-18 04:34:00,
2013-06-18 00:43:00,61.0,61.0,29.97,ENE,61,0.0,19.0,99,0.00,,,0.01,,2013-06-18 04:43:00,
2013-06-18 00:53:00,61.0,61.0,29.97,ENE,61,0.0,19.0,99,0.00,,,0.01,,2013-06-18 04:53:00,
2013-06-18 01:03:00,61.0,61.0,29.97,ENE,61,0.0,19.0,99,0.00,,,0.01,,2013-06-18 05:03:00,
2013-06-18 01:12:00,61.0,61.0,29.97,ENE,61,0.0,19.0,99,0.00,,,0.01,,2013-06-18 05:12:00,
2013-06-18 01:22:00,61.0,61.0,29.97,ENE,61,0.0,19.0,99,0.00,,,0.01,,2013-06-18 05:22:00,
2013-06-18 02:24:00,59.0,59.0,29.96,ENE,61,0.0,19.0,99,0.00,,,0.01,,2013-06-18 06:24:00,
2013-06-18 02:32:00,59.0,59.0,29.96,ENE,61,0.0,19.0,99,0.00,,,0.01,,2013-06-18 06:32:00,
2013-06-18 02:43:00,59.0,59.0,29.96,ENE,61,0.0,19.0,99,0.00,,,0.01,,2013-06-18 06:43:00,
2013-06-18 02:53:00,59.0,59.0,29.96,ENE,61,0.0,19.0,99,0.00,,,0.01,,2013-06-18 06:53:00,
2013-06-18 03:02:00,59.0,59.0,29.96,ENE,61,0.0,19.0,99,0.00,,,0.01,,2013-06-18 07:02:00,
2013-06-18 03:12:00,59.0,59.0,29.96,ENE,61,0.0,19.0,99,0.00,,,0.01,,2013-06-18 07:12:00,
2013-06-18 03:22:00,59.0,59.0,29.96,ENE,61,0.0,19.0,99,0.00,,,0.01,,2013-06-18 07:22:00,
2013-06-18 03:33:00,59.0,59.0,29.96,ENE,61,0.0,19.0,99,0.00,,,0.01,,2013-06-18 07:33:00,
2013-06-18 03:43:00,58.0,58.0,29.95,ENE,61,0.0,19.0,99,0.00,,,0.01,,2013-06-18 07:43:00,
2013-06-18 03:53:00,58.0,58.0,29.95,ENE,61,0.0,19.0,99,0.00,,,0.01,,2013-06-18 07:53:00,
2013-06-18 04:02:00,58.0,58.0,29.95,ENE,61,0.0,19.0,99,0.00,,,0.01,,2013-06-18 08:02:00,
2013-06-18 04:11:00,58.0,58.0,29.95,ENE,61,0.0,19.0,99,0.00,,,0.01,,2013-06-18 08:11:00,
2013-06-18 04:23:00,57.0,57.0,29.95,ENE,61,0.0,19.0,99,0.00,,,0.01,,2013-06-18 08:23:00,
2013-06-18 04:33:00,57.0,57.0,29.95,ENE,61,0.0,19.0,99,0.00,,,0.01,,2013-06-18 08:33:00,
2013-06-18 04:43:00,58.0,58.0,29.95,ENE,61,0.0,19.0,99,0.00,,,0.01,,2013-06-18 08:43:00,
2013-06-18 04:52:00,58.0,58.0,29.95,ENE,61,0.0,19.0,99,0.00,,,0.01,,2013-06-18 08:52:00,
2013-06-18 05:02:00,58.0,58.0,29.95,ENE,61,0.0,19.0,99,0.00,,,0.01,,2013-06-18 09:02:00,
2013-06-18 05:12:00,58.0,58.0,29.95,ENE,61,0.0,19.0,99,0.00,,,0.01,,2013-06-18 09:12:00,
2013-06-18 05:22:00,58.0,58.0,29.95,ENE,61,0.0,19.0,99,0.00,,,0.01,,2013-06-18 09:22:00,
2013-06-18 05:34:00,58.0,58.0,29.95,ENE,61,0.0,19.0,99,0.00,,,0.01,,2013-06-18 09:34:00,
2013-06-18 05:43:00,57.0,57.0,29.96,ENE,61,0.0,19.0,99,0.00,,,0.01,,2013-06-18 09:43:00,
2013-06-18 05:53:00,57.0,57.0,29.96,ENE,61,0.0,19.0,99,0.00,,,0.01,,2013-06-18 09:53:00,
2013-06-18 06:02:00,57.0,57.0,29.96,ENE,61,0.0,19.0,99,0.00,,,0.01,,2013-06-18 10:02:00,
2013-06-18 06:11:00,58.0,58.0,29.96,ENE,61,0.0,19.0,99,0.00,,,0.01,,2013-06-18 10:11:00,
2013-06-18 06:22:00,58.0,58.0,29.96,ENE,61,0.0,19.0,99,0.00,,,0.01,,2013-06-18 10:22:00,
2013-06-18 06:33:00,58.0,58.0,29.96,ENE,61,0.0,19.0,99,0.00,,,0.01,,2013-06-18 10:33:00,
2013-06-18 06:43:00,58.0,58.0,29.96,ENE,61,0.0,19.0,99,0.00,,,0.01,,2013-06-18 10:43:00,
2013-06-18 06:53:00,59.0,59.0,29.96,ENE,61,0.0,19.0,99,0.00,,,0.01,,2013-06-18 10:53:00,
2013-06-18 07:02:00,59.0,59.0,29.96,ENE,61,0.0,19.0,99,0.00,,,0.01,,2013-06-18 11:02:00,
2013-06-18 07:11:00,59.0,59.0,29.96,ENE,61,0.0,19.0,99,0.00,,,0.01,,2013-06-18 11:11:00,
2013-06-18 07:22:00,59.0,59.0,29.96,NNE,23,0.0,19.0,99,0.00,,,0.01,,2013-06-18 11:22:00,
2013-06-18 07:32:00,59.0,59.0,29.96,NNE,23,0.0,19.0,99,0.00,,,0.01,,2013-06-18 11:32:00,
2013-06-18 07:43:00,61.0,61.0,29.97,NNE,23,0.0,19.0,99,0.00,,,0.01,,2013-06-18 11:43:00,
2013-06-18 07:52:00,61.0,61.0,29.97,NNE,23,0.0,19.0,99,0.00,,,0.01,,2013-06-18 11:52:00,
2013-06-18 08:01:00,61.0,61.0,29.97,NNE,23,0.0,19.0,99,0.00,,,0.01,,2013-06-18 12:01:00,
2013-06-18 08:11:00,61.0,61.0,29.97,NNE,23,0.0,19.0,99,0.00,,,0.01,,2013-06-18 12:11:00,
2013-06-18 08:22:00,61.0,61.0,29.97,NNE,23,0.0,19.0,99,0.00,,,0.01,,2013-06-18 12:22:00,
2013-06-18 08:43:00,66.0,66.0,29.97,NNE,23,0.0,19.0,99,0.00,,,0.01,,2013-06-18 12:43:00,
2013-06-18 08:52:00,66.0,66.0,29.97,NNE,23,0.0,19.0,99,0.00,,,0.01,,2013-06-18 12:52:00,
2013-06-18 09:02:00,66.0,66.0,29.97,NNE,23,0.0,19.0,99,0.00,,,0.01,,2013-06-18 13:02:00,
2013-06-18 09:12:00,66.0,66.0,29.97,NNE,23,0.0,19.0,99,0.00,,,0.01,,2013-06-18 13:12:00,
2013-06-18 09:22:00,66.0,66.0,29.97,NNE,23,0.0,19.0,99,0.00,,,0.01,,2013-06-18 13:22:00,
2013-06-18 10:12:00,69.0,64.0,29.98,SE,124,0.0,19.0,83,0.00,,,0.01,,2013-06-18 14:12:00,
2013-06-18 10:22:00,69.0,64.0,29.98,SE,124,0.0,19.0,83,0.00,,,0.01,,2013-06-18 14:22:00,
2013-06-18 10:33:00,69.0,64.0,29.98,SE,124,0.0,19.0,83,0.00,,,0.01,,2013-06-18 14:33:00,
2013-06-18 10:43:00,71.0,64.0,29.97,SSE,156,3.0,19.0,78,0.00,,,0.01,,2013-06-18 14:43:00,
2013-06-18 10:53:00,71.0,64.0,29.97,SSE,156,3.0,19.0,78,0.00,,,0.01,,2013-06-18 14:53:00,
2013-06-18 11:02:00,71.0,64.0,29.97,SSE,156,3.0,19.0,78,0.00,,,0.01,,2013-06-18 15:02:00,
2013-06-18 11:11:00,71.0,64.0,29.97,SSE,156,3.0,19.0,78,0.00,,,0.01,,2013-06-18 15:11:00,
2013-06-18 11:22:00,71.0,64.0,29.97,SSE,156,3.0,19.0,78,0.00,,,0.01,,2013-06-18 15:22:00,
2013-06-18 12:23:00,74.0,66.0,29.96,SE,139,3.0,19.0,76,0.00,,,0.01,,2013-06-18 16:23:00,
2013-06-18 12:33:00,74.0,66.0,29.96,SE,139,3.0,19.0,76,0.00,,,0.01,,2013-06-18 16:33:00,
2013-06-18 12:43:00,74.0,65.0,29.96,SE,130,0.0,19.0,73,0.00,,,0.01,,2013-06-18 16:43:00,
2013-06-18 12:53:00,74.0,65.0,29.96,SE,130,0.0,19.0,73,0.00,,,0.01,,2013-06-18 16:53:00,
2013-06-18 13:02:00,74.0,65.0,29.96,SE,130,0.0,19.0,73,0.00,,,0.01,,2013-06-18 17:02:00,
2013-06-18 13:12:00,74.0,68.0,29.95,SE,124,4.0,19.0,83,0.00,,,0.01,,2013-06-18 17:12:00,
2013-06-18 13:22:00,74.0,68.0,29.95,SE,124,4.0,19.0,83,0.00,,,0.01,,2013-06-18 17:22:00,
2013-06-18 13:34:00,74.0,68.0,29.95,SE,124,4.0,19.0,83,0.00,,,0.01,,2013-06-18 17:34:00,
2013-06-18 14:12:00,73.0,71.0,29.93,SE,142,2.0,19.0,92,0.00,,,0.01,,2013-06-18 18:12:00,
2013-06-18 14:53:00,73.0,71.0,29.93,SE,142,2.0,19.0,92,0.00,,,0.01,,2013-06-18 18:53:00,
2013-06-18 15:22:00,71.0,69.0,29.90,SE,129,4.0,19.0,93,0.00,,,0.01,,2013-06-18 19:22:00,
2013-06-18 15:33:00,71.0,69.0,29.90,SE,129,4.0,19.0,93,0.00,,,0.01,,2013-06-18 19:33:00,
2013-06-18 15:43:00,70.0,68.0,29.91,ESE,106,3.0,19.0,95,0.00,,,0.01,,2013-06-18 19:43:00,
2013-06-18 15:52:00,70.0,68.0,29.91,ESE,106,3.0,19.0,95,0.00,,,0.01,,2013-06-18 19:52:00,
2013-06-18 16:02:00,70.0,68.0,29.91,ESE,106,3.0,19.0,95,0.00,,,0.01,,2013-06-18 20:02:00,
2013-06-18 16:12:00,70.0,68.0,29.91,ESE,106,3.0,19.0,95,0.00,,,0.01,,2013-06-18 20:12:00,
2013-06-18 16:23:00,67.0,67.0,29.91,SE,139,1.0,19.0,99,0.00,,,0.01,,2013-06-18 20:23:00,
2013-06-18 16:33:00,67.0,67.0,29.91,SE,139,1.0,19.0,99,0.00,,,0.01,,2013-06-18 20:33:00,
2013-06-18 16:43:00,67.0,67.0,29.91,SE,139,1.0,19.0,99,0.00,,,0.01,,2013-06-18 20:43:00,
2013-06-18 16:52:00,67.0,67.0,29.91,SE,139,1.0,19.0,99,0.00,,,0.01,,2013-06-18 20:52:00,
2013-06-18 17:52:00,67.0,67.0,29.94,NE,54,0.0,19.0,99,0.00,,,0.01,,2013-06-18 21:52:00,
2013-06-18 18:02:00,67.0,67.0,29.94,NE,54,0.0,19.0,99,0.00,,,0.01,,2013-06-18 22:02:00,
2013-06-18 18:11:00,66.0,65.0,29.93,NE,45,8.0,19.0,97,0.00,,,0.01,,2013-06-18 22:11:00,
2013-06-18 18:22:00,66.0,65.0,29.93,NE,45,8.0,19.0,97,0.00,,,0.01,,2013-06-18 22:22:00,
2013-06-18 18:34:00,66.0,65.0,29.93,NE,45,8.0,19.0,97,0.00,,,0.01,,2013-06-18 22:34:00,
2013-06-18 18:43:00,66.0,64.0,29.93,North,1,5.0,19.0,94,0.00,,,0.01,,2013-06-18 22:43:00,
2013-06-18 18:53:00,66.0,64.0,29.93,North,1,5.0,19.0,94,0.00,,,0.01,,2013-06-18 22:53:00,
2013-06-18 19:02:00,66.0,64.0,29.93,North,1,5.0,19.0,94,0.00,,,0.01,,2013-06-18 23:02:00,
2013-06-18 19:12:00,64.0,63.0,29.92,NE,44,6.0,19.0,95,0.00,,,0.01,,2013-06-18 23:12:00,
2013-06-18 19:23:00,64.0,63.0,29.92,NE,44,6.0,19.0,95,0.00,,,0.01,,2013-06-18 23:23:00,
2013-06-18 19:38:00,64.0,63.0,29.92,NE,44,6.0,19.0,95,0.00,,,0.01,,2013-06-18 23:38:00,
2013-06-18 19:48:00,62.0,61.0,29.92,North,6,2.0,19.0,96,0.00,,,0.01,,2013-06-18 23:48:00,
2013-06-18 19:53:00,62.0,61.0,29.92,North,6,2.0,19.0,96,0.00,,,0.01,,2013-06-18 23:53:00,
2013-06-18 20:02:00,62.0,61.0,29.92,North,6,2.0,19.0,96,0.00,,,0.01,,2013-06-19 00:02:00,
2013-06-18 20:12:00,58.0,58.0,29.94,NNE,24,0.0,19.0,99,0.00,,,0.01,,2013-06-19 00:12:00,
2013-06-18 20:33:00,58.0,58.0,29.94,NNE,24,0.0,19.0,99,0.00,,,0.01,,2013-06-19 00:33:00,